KC2DUX-10 Weather Reports


Display with metric or nautical units.
time (UTC)temp
F
wind
direction
speed
MPH
gust
MPH
rain 1hr
in
rain 24hr
in
rain mn
in
humidity
%
barometer
mb
20210801180541 76 148 5.0 8.0 0.00 0.00 0.00 77 1010.6
20210801180056 76 144 4.0 8.0 0.00 0.00 0.00 77 1010.6
20210801175538 76 124 3.0 7.0 0.00 0.00 0.00 77 1010.6
20210801175038 76 150 3.0 9.0 0.00 0.00 0.00 76 1010.7
20210801174601 76 148 4.0 9.0 0.00 0.00 0.00 75 1010.8
20210801174039 76 150 4.0 9.0 0.00 0.00 0.00 76 1010.8
20210801173540 76 144 5.0 9.0 0.00 0.00 0.00 76 1010.8
20210801173112 76 157 5.0 8.0 0.00 0.00 0.00 77 1010.8
20210801172536 76 149 4.0 8.0 0.00 0.00 0.00 78 1010.8
20210801172041 76 158 4.0 8.0 0.00 0.00 0.00 78 1010.8
20210801171540 76 148 3.0 7.0 0.00 0.00 0.00 79 1011.0
20210801171034 76 153 4.0 7.0 0.00 0.00 0.00 78 1011.1
20210801170558 76 165 4.0 7.0 0.00 0.00 0.00 78 1011.2
20210801170119 77 153 4.0 6.0 0.00 0.00 0.00 78 1011.3
20210801165530 77 160 3.0 8.0 0.00 0.00 0.00 77 1011.5
20210801165029 77 186 3.0 9.0 0.00 0.00 0.00 77 1011.5
20210801164624 77 191 5.0 9.0 0.00 0.00 0.00 77 1011.7
20210801164032 77 168 4.0 10.0 0.00 0.00 0.00 76 1011.7
20210801163528 77 182 4.0 9.0 0.00 0.00 0.00 76 1011.8
20210801163049 77 185 4.0 7.0 0.00 0.00 0.00 75 1011.9
20210801162533 78 142 4.0 8.0 0.00 0.00 0.00 74 1011.8
20210801162028 78 142 4.0 8.0 0.00 0.00 0.00 74 1011.9
20210801161616 78 165 5.0 9.0 0.00 0.00 0.00 74 1011.8
20210801161026 78 142 5.0 9.0 0.00 0.00 0.00 76 1011.8
20210801160528 78 160 5.0 8.0 0.00 0.00 0.00 76 1011.8
20210801160118 77 157 4.0 8.0 0.00 0.00 0.00 78 1012.0
20210801155523 77 161 4.0 10.0 0.00 0.00 0.00 78 1012.2
20210801155051 77 185 5.0 10.0 0.00 0.00 0.00 78 1012.2
20210801154600 77 167 4.0 6.0 0.00 0.00 0.00 78 1012.3
20210801154022 77 154 5.0 7.0 0.00 0.00 0.00 78 1012.3
20210801153521 77 158 4.0 7.0 0.00 0.00 0.00 78 1012.4
20210801153102 77 150 4.0 7.0 0.00 0.00 0.00 76 1012.5
20210801152520 77 174 3.0 6.0 0.00 0.00 0.00 77 1012.6
20210801152031 77 164 3.0 7.0 0.00 0.00 0.00 77 1012.6
20210801151519 77 167 4.0 7.0 0.00 0.00 0.00 77 1012.5
20210801151019 77 169 3.0 6.0 0.00 0.00 0.00 77 1012.5
20210801150529 77 162 2.0 4.0 0.00 0.00 0.00 78 1012.5
20210801150112 77 158 2.0 4.0 0.00 0.00 0.00 78 1012.5
20210801145527 77 166 2.0 5.0 0.00 0.00 0.00 78 1012.5
20210801145016 77 161 3.0 5.0 0.00 0.00 0.00 80 1012.4
20210801144557 76 157 2.0 6.0 0.00 0.00 0.00 81 1012.3
20210801144013 76 175 3.0 6.0 0.00 0.00 0.00 82 1012.4
20210801143518 75 165 2.0 6.0 0.00 0.00 0.00 83 1012.3
20210801143013 75 183 3.0 8.0 0.00 0.00 0.00 83 1012.3
20210801142513 74 182 3.0 8.0 0.00 0.00 0.00 83 1012.4
20210801142020 74 186 5.0 7.0 0.00 0.00 0.00 82 1012.5
20210801141514 75 215 3.0 7.0 0.00 0.00 0.00 81 1012.6
20210801141010 74 165 3.0 6.0 0.00 0.00 0.00 81 1012.5
20210801140510 74 188 2.0 5.0 0.00 0.00 0.00 82 1012.4
20210801140023 74 177 2.0 5.0 0.00 0.00 0.00 84 1012.3
20210801135519 74 181 3.0 5.0 0.00 0.00 0.00 86 1012.2
20210801135011 73 360 2.0 6.0 0.00 0.00 0.00 86 1012.3
20210801134507 73 189 3.0 6.0 0.00 0.00 0.00 86 1012.2
20210801134005 73 196 3.0 6.0 0.00 0.00 0.00 86 1012.3
20210801133505 73 185 3.0 6.0 0.00 0.00 0.00 86 1012.3
20210801133031 73 182 3.0 6.0 0.00 0.00 0.00 87 1012.3
20210801132505 73 167 2.0 6.0 0.00 0.00 0.00 87 1012.3
20210801132004 73 165 2.0 5.0 0.00 0.00 0.00 86 1012.3
20210801131506 73 159 3.0 7.0 0.00 0.00 0.00 86 1012.4
20210801131007 73 159 5.0 7.0 0.00 0.00 0.00 85 1012.3
20210801130507 73 161 2.0 7.0 0.00 0.00 0.00 85 1012.5
20210801130033 73 155 3.0 7.0 0.00 0.00 0.00 85 1012.4
20210801125504 73 174 2.0 7.0 0.00 0.00 0.00 85 1012.4
20210801125007 73 162 3.0 7.0 0.00 0.00 0.00 84 1012.3
20210801124504 73 161 4.0 7.0 0.00 0.00 0.00 84 1012.3
20210801124004 73 156 4.0 7.0 0.00 0.00 0.00 83 1012.3
20210801123503 73 153 4.0 8.0 0.00 0.00 0.00 82 1012.5
20210801123004 73 150 5.0 8.0 0.00 0.00 0.00 82 1012.5
20210801122503 73 149 4.0 8.0 0.00 0.00 0.00 82 1012.4
20210801122009 73 148 3.0 7.0 0.00 0.00 0.00 83 1012.3
20210801121506 73 360 2.0 6.0 0.00 0.00 0.00 84 1012.4
20210801120606 72 360 3.0 5.0 0.00 0.00 0.00 85 1012.1
20210801120333 72 360 4.0 5.0 0.00 0.00 0.00 85 1012.2
20210801115558 72 360 3.0 5.0 0.00 0.00 0.00 85 1012.3
20210801115058 72 360 2.0 4.0 0.00 0.00 0.00 84 1012.6
20210801114634 72 360 2.0 5.0 0.00 0.00 0.00 84 1012.5
20210801114059 72 360 2.0 5.0 0.00 0.00 0.00 85 1012.5
20210801113556 71 360 3.0 5.0 0.00 0.00 0.00 85 1012.6
20210801113226 71 360 3.0 6.0 0.00 0.00 0.00 86 1012.5
20210801112554 71 360 4.0 8.0 0.00 0.00 0.00 86 1012.6
20210801112052 71 360 4.0 8.0 0.00 0.00 0.00 87 1012.4
20210801111742 71 360 3.0 6.0 0.00 0.00 0.00 87 1012.5
20210801111050 71 360 4.0 6.0 0.00 0.00 0.00 88 1012.4
20210801110549 71 360 3.0 6.0 0.00 0.00 0.00 89 1012.5
20210801110211 71 360 4.0 6.0 0.00 0.00 0.00 90 1012.4
20210801105549 71 360 4.0 6.0 0.00 0.00 0.00 90 1012.4
20210801105110 71 360 3.0 6.0 0.00 0.00 0.00 90 1012.5
20210801104601 70 360 4.0 6.0 0.00 0.00 0.00 91 1012.4
20210801104045 70 360 2.0 6.0 0.00 0.00 0.00 91 1012.6
20210801103544 70 360 4.0 6.0 0.00 0.00 0.00 91 1012.4
20210801103100 70 360 3.0 6.0 0.00 0.00 0.00 91 1012.4
20210801102600 70 360 3.0 5.0 0.00 0.00 0.00 92 1012.4
20210801102043 70 360 3.0 6.0 0.00 0.00 0.00 92 1012.3
20210801101606 70 360 4.0 6.0 0.00 0.00 0.00 91 1012.2
20210801101047 70 360 4.0 5.0 0.00 0.00 0.00 91 1012.4
20210801100542 70 360 2.0 4.0 0.00 0.00 0.00 91 1012.5
20210801100123 70 360 3.0 5.0 0.00 0.00 0.00 92 1012.3
20210801095542 70 360 3.0 5.0 0.00 0.00 0.00 92 1012.3
20210801095041 70 360 3.0 4.0 0.00 0.00 0.00 92 1012.5
20210801094647 70 360 2.0 4.0 0.00 0.00 0.00 91 1012.5
20210801094039 70 360 2.0 4.0 0.00 0.00 0.00 91 1012.5
20210801093546 70 360 3.0 4.0 0.00 0.00 0.00 91 1012.4
20210801093108 70 360 2.0 4.0 0.00 0.00 0.00 91 1012.4
20210801092544 70 360 2.0 4.0 0.00 0.00 0.00 90 1012.4
20210801092037 70 360 3.0 4.0 0.00 0.00 0.00 90 1012.3
20210801091605 70 360 3.0 5.0 0.00 0.00 0.00 90 1012.3
20210801091102 70 360 2.0 5.0 0.00 0.00 0.00 90 1012.4
20210801090537 70 360 2.0 5.0 0.00 0.00 0.00 90 1012.5
20210801090052 70 360 3.0 5.0 0.00 0.00 0.00 89 1012.5
20210801085539 70 360 1.0 4.0 0.00 0.00 0.00 89 1012.5
20210801085035 70 360 2.0 4.0 0.00 0.00 0.00 89 1012.6
20210801084620 69 360 2.0 4.0 0.00 0.00 0.00 88 1012.4
20210801084036 69 360 1.0 4.0 0.00 0.00 0.00 88 1012.3
20210801083535 69 360 2.0 4.0 0.00 0.00 0.00 87 1012.3
20210801083038 69 360 2.0 5.0 0.00 0.00 0.00 87 1012.4
20210801082538 69 360 2.0 5.0 0.00 0.00 0.00 87 1012.3
20210801082034 69 360 3.0 4.0 0.00 0.00 0.00 86 1012.2
20210801081614 69 360 1.0 4.0 0.00 0.00 0.00 86 1012.2
20210801081033 69 360 2.0 4.0 0.00 0.00 0.00 86 1012.3
20210801080533 69 360 1.0 2.0 0.00 0.00 0.00 85 1012.2
20210801080105 69 360 1.0 4.0 0.00 0.00 0.00 84 1012.2
20210801075533 69 360 2.0 4.0 0.00 0.00 0.00 84 1012.2
20210801075036 69 360 1.0 3.0 0.00 0.00 0.00 84 1012.1
20210801074609 69 360 1.0 3.0 0.00 0.00 0.00 83 1012.2
20210801074048 69 360 1.0 3.0 0.00 0.00 0.00 83 1012.2
20210801073533 69 360 1.0 3.0 0.00 0.00 0.00 83 1012.1
20210801073038 69 360 1.0 3.0 0.00 0.00 0.00 83 1012.1
20210801072536 69 360 1.0 3.0 0.00 0.00 0.00 83 1012.1
20210801072031 69 360 1.0 3.0 0.00 0.00 0.00 83 1012.1
20210801071629 69 360 1.0 3.0 0.00 0.00 0.00 84 1012.1
20210801071029 69 360 1.0 3.0 0.00 0.00 0.00 83 1012.2
20210801070538 69 360 1.0 3.0 0.00 0.00 0.00 82 1012.2
20210801070116 70 360 1.0 4.0 0.00 0.00 0.00 82 1012.3
20210801065557 70 360 2.0 4.0 0.00 0.00 0.00 82 1012.4
20210801065042 70 360 3.0 4.0 0.00 0.00 0.00 81 1012.4
20210801064541 70 360 3.0 4.0 0.00 0.00 0.00 81 1012.5
20210801064025 70 360 2.0 5.0 0.00 0.00 0.00 81 1012.7
20210801063524 70 360 3.0 5.0 0.00 0.00 0.00 81 1012.7
20210801063025 70 360 3.0 5.0 0.00 0.00 0.00 80 1012.7
20210801062524 70 360 1.0 5.0 0.00 0.00 0.00 80 1012.6
20210801062023 70 360 4.0 5.0 0.00 0.00 0.00 80 1012.6
20210801061544 70 360 2.0 4.0 0.00 0.00 0.00 80 1012.6
20210801061031 70 360 2.0 4.0 0.00 0.00 0.00 80 1012.6
20210801060531 70 360 2.0 4.0 0.00 0.00 0.00 80 1012.7
20210801060035 70 360 1.0 3.0 0.00 0.00 0.00 79 1012.7
20210801055520 70 360 1.0 4.0 0.00 0.00 0.00 80 1012.8
20210801055019 70 360 2.0 4.0 0.00 0.00 0.00 80 1012.9
20210801054523 70 360 2.0 4.0 0.00 0.00 0.00 80 1013.0
20210801054018 70 360 2.0 5.0 0.00 0.00 0.00 80 1013.0
20210801053517 70 360 3.0 5.0 0.00 0.00 0.00 80 1013.0
20210801053040 70 360 2.0 5.0 0.00 0.00 0.00 80 1013.0
20210801052520 70 360 3.0 6.0 0.00 0.00 0.00 80 1013.0
20210801052020 70 360 4.0 6.0 0.00 0.00 0.00 79 1013.1
20210801051527 70 360 3.0 8.0 0.00 0.00 0.00 79 1013.2
20210801051015 70 360 4.0 8.0 0.00 0.00 0.00 79 1013.2
20210801050517 70 360 4.0 6.0 0.00 0.00 0.00 79 1013.3
20210801050018 70 360 4.0 6.0 0.00 0.00 0.00 79 1013.3
20210801045518 70 360 4.0 8.0 0.00 0.00 0.00 80 1013.4
20210801045013 70 360 4.0 8.0 0.00 0.00 0.00 80 1013.4
20210801044517 70 360 3.0 6.0 0.00 0.00 0.00 79 1013.5
20210801044011 70 360 4.0 8.0 0.00 0.00 0.00 79 1013.5
20210801043514 70 360 4.0 9.0 0.00 0.00 0.00 79 1013.5
20210801043013 70 360 5.0 9.0 0.00 0.00 0.00 79 1013.6
20210801042509 70 360 6.0 9.0 0.00 0.00 0.00 78 1013.7
20210801042011 70 360 4.0 8.0 0.00 0.00 0.00 78 1013.6
20210801041508 70 360 2.0 6.0 0.00 0.00 0.00 77 1013.9
20210801041011 70 360 2.0 10.0 0.00 0.00 0.00 77 1014.0
20210801040510 70 360 6.0 10.0 0.00 0.00 0.00 78 1014.0
20210801040047 70 360 5.0 9.0 0.00 0.00 0.00 77 1014.0
20210801035515 71 360 5.0 10.0 0.00 0.00 0.00 77 1014.0
20210801035002 71 360 5.0 10.0 0.00 0.00 0.00 77 1014.0
20210801034504 71 360 4.0 9.0 0.00 0.00 0.00 76 1014.1
20210801034003 70 360 5.0 9.0 0.00 0.00 0.00 77 1014.0
20210801033502 70 360 4.0 9.0 0.00 0.00 0.00 77 1014.1
20210801033007 70 360 4.0 9.0 0.00 0.00 0.00 77 1014.0
20210801032503 70 360 5.0 9.0 0.00 0.00 0.00 77 1014.0
20210801032001 70 360 5.0 9.0 0.00 0.00 0.00 78 1013.9
20210801031503 70 360 5.0 8.0 0.00 0.00 0.00 78 1013.9
20210801031005 70 360 4.0 8.0 0.00 0.00 0.00 78 1013.8
20210801030503 70 360 4.0 8.0 0.00 0.00 0.00 78 1013.9
20210801025606 70 360 5.0 9.0 0.00 0.00 0.00 78 1014.1
20210801025501 70 360 5.0 9.0 0.00 0.00 0.00 77 1014.1
20210801025103 70 360 5.0 9.0 0.00 0.00 0.00 78 1014.1
20210801024743 70 360 6.0 11.0 0.00 0.00 0.00 78 1014.0
20210801024100 70 360 7.0 11.0 0.00 0.00 0.00 77 1013.9
20210801023600 70 360 7.0 11.0 0.00 0.00 0.00 77 1013.9
20210801023338 70 360 7.0 10.0 0.00 0.00 0.00 76 1013.9
20210801022629 70 360 6.0 11.0 0.00 0.00 0.00 76 1013.9
20210801022115 70 360 8.0 11.0 0.00 0.00 0.00 75 1013.9
20210801021740 70 360 7.0 11.0 0.00 0.00 0.00 75 1013.9
20210801021111 70 360 6.0 11.0 0.00 0.00 0.00 75 1013.9
20210801020558 70 360 6.0 11.0 0.00 0.00 0.00 75 1013.9
20210801020212 70 360 6.0 11.0 0.00 0.00 0.00 75 1014.0
20210801015557 70 360 7.0 12.0 0.00 0.00 0.00 75 1014.1
20210801014625 70 360 7.0 13.0 0.00 0.00 0.00 75 1013.9
20210801014057 70 360 7.0 13.0 0.00 0.00 0.00 75 1014.0
20210801013556 70 360 9.0 13.0 0.00 0.00 0.00 75 1013.9
20210801013158 70 360 7.0 13.0 0.00 0.00 0.00 75 1013.9
20210801012557 70 360 7.0 12.0 0.00 0.00 0.00 76 1013.9
20210801012137 70 360 7.0 10.0 0.00 0.00 0.00 75 1013.9
20210801011716 70 360 6.0 11.0 0.00 0.00 0.00 74 1013.7
20210801011055 70 360 7.0 11.0 0.00 0.00 0.00 74 1013.6
20210801010602 70 360 6.0 8.0 0.00 0.00 0.00 73 1013.5
20210801010140 70 360 3.0 9.0 0.00 0.00 0.00 72 1013.5
20210801005603 71 360 5.0 9.0 0.00 0.00 0.00 71 1013.4
20210801005100 71 360 4.0 8.0 0.00 0.00 0.00 71 1013.5
20210801004834 71 360 3.0 6.0 0.00 0.00 0.00 71 1013.4
20210801004102 71 360 3.0 6.0 0.00 0.00 0.00 70 1013.4
20210801003554 71 360 4.0 9.0 0.00 0.00 0.00 69 1013.3
20210801003142 71 360 5.0 9.0 0.00 0.00 0.00 69 1013.4
20210801002554 71 360 5.0 9.0 0.00 0.00 0.00 69 1013.5
20210801002149 71 360 6.0 9.0 0.00 0.00 0.00 68 1013.6
20210801001644 71 360 4.0 8.0 0.00 0.00 0.00 68 1013.6
20210801001053 71 360 4.0 9.0 0.00 0.00 0.00 68 1013.5
20210801000552 71 360 5.0 9.0 0.00 0.00 0.00 67 1013.6
20210801000159 72 360 6.0 9.0 0.00 0.00 0.00 67 1013.6
20210731235552 72 360 5.0 9.0 0.00 0.00 0.00 66 1013.5
20210731235109 72 360 4.0 8.0 0.00 0.00 0.00 65 1013.5
20210731234706 72 360 3.0 8.0 0.00 0.00 0.00 65 1013.5
20210731234059 72 360 3.0 8.0 0.00 0.00 0.00 66 1013.6
20210731233552 72 360 3.0 9.0 0.00 0.00 0.00 66 1013.5
20210731233128 73 360 5.0 9.0 0.00 0.00 0.00 66 1013.5
20210731232551 73 360 6.0 10.0 0.00 0.00 0.00 66 1013.5
20210731232102 73 360 6.0 10.0 0.00 0.00 0.00 65 1013.5
20210731231734 73 360 6.0 9.0 0.00 0.00 0.00 66 1013.5
20210731231111 74 360 3.0 8.0 0.00 0.00 0.00 67 1013.5
20210731230550 74 360 3.0 8.0 0.00 0.00 0.00 65 1013.5
20210731230206 74 360 5.0 8.0 0.00 0.00 0.00 64 1013.5
20210731225603 74 360 4.0 8.0 0.00 0.00 0.00 65 1013.5
20210731225050 74 360 4.0 8.0 0.00 0.00 0.00 64 1013.4
20210731224645 75 360 2.0 8.0 0.00 0.00 0.00 63 1013.5
20210731224049 75 360 5.0 8.0 0.00 0.00 0.00 61 1013.5
20210731223549 75 360 5.0 8.0 0.00 0.00 0.00 58 1013.5
20210731223125 76 360 3.0 6.0 0.00 0.00 0.00 60 1013.4
20210731222548 76 360 4.0 6.0 0.00 0.00 0.00 58 1013.3
20210731222047 76 360 3.0 7.0 0.00 0.00 0.00 59 1013.4
20210731221702 77 173 4.0 7.0 0.00 0.00 0.00 59 1013.5
20210731221110 78 158 4.0 7.0 0.00 0.00 0.00 56 1013.5
20210731220547 78 171 4.0 6.0 0.00 0.00 0.00 55 1013.5
20210731220110 79 166 4.0 7.0 0.00 0.00 0.00 53 1013.5
20210731215600 80 157 4.0 8.0 0.00 0.00 0.00 52 1013.6
20210731215101 81 182 5.0 8.0 0.00 0.00 0.00 50 1013.6
20210731214706 82 168 5.0 7.0 0.00 0.00 0.00 48 1013.6
20210731214047 83 173 4.0 7.0 0.00 0.00 0.00 50 1013.8
20210731213546 83 188 4.0 7.0 0.00 0.00 0.00 48 1013.7
20210731213115 83 180 2.0 9.0 0.00 0.00 0.00 50 1013.7
20210731212545 83 159 3.0 9.0 0.00 0.00 0.00 50 1013.7
20210731212052 83 173 6.0 8.0 0.00 0.00 0.00 50 1013.8
20210731211617 83 153 5.0 8.0 0.00 0.00 0.00 49 1013.9
20210731211052 83 172 1.0 6.0 0.00 0.00 0.00 50 1013.9
20210731210544 83 261 3.0 6.0 0.00 0.00 0.00 43 1013.9
20210731210139 83 195 3.0 6.0 0.00 0.00 0.00 49 1013.9
20210731205559 82 160 3.0 6.0 0.00 0.00 0.00 51 1014.0
20210731205043 81 175 2.0 4.0 0.00 0.00 0.00 50 1013.9
20210731204613 80 251 2.0 9.0 0.00 0.00 0.00 49 1014.0
20210731204050 80 273 3.0 12.0 0.00 0.00 0.00 43 1014.0
20210731203546 80 329 8.0 12.0 0.00 0.00 0.00 45 1014.0
20210731203231 80 297 6.0 11.0 0.00 0.00 0.00 45 1014.0
20210731202549 80 314 6.0 11.0 0.00 0.00 0.00 45 1014.0
20210731202043 80 355 5.0 10.0 0.00 0.00 0.00 44 1014.1
20210731201647 80 285 5.0 11.0 0.00 0.00 0.00 44 1014.1
20210731201048 80 280 5.0 11.0 0.00 0.00 0.00 45 1014.2
20210731200610 80 280 5.0 10.0 0.00 0.00 0.00 45 1014.2
20210731200215 80 340 5.0 10.0 0.00 0.00 0.00 48 1014.2
20210731195542 79 322 6.0 11.0 0.00 0.00 0.00 45 1014.3
20210731195041 79 347 8.0 12.0 0.00 0.00 0.00 46 1014.3
20210731194650 80 304 7.0 16.0 0.00 0.00 0.00 43 1014.5
20210731194044 80 297 8.0 16.0 0.00 0.00 0.00 43 1014.6
20210731193139 82 355 7.0 11.0 0.00 0.00 0.00 41 1014.6
20210731192540 84 254 2.0 7.0 0.00 0.00 0.00 41 1014.6
20210731192041 83 145 2.0 8.0 0.00 0.00 0.00 48 1014.7
20210731191657 83 147 4.0 10.0 0.00 0.00 0.00 46 1014.7
20210731191045 83 155 6.0 10.0 0.00 0.00 0.00 46 1014.8
20210731190538 83 154 7.0 9.0 0.00 0.00 0.00 46 1014.6
20210731190137 83 158 5.0 10.0 0.00 0.00 0.00 46 1014.6
20210731185553 83 150 7.0 10.0 0.00 0.00 0.00 43 1014.7
20210731185037 83 147 6.0 10.0 0.00 0.00 0.00 43 1014.9
20210731184548 83 160 4.0 8.0 0.00 0.00 0.00 42 1014.9
20210731184035 83 182 5.0 9.0 0.00 0.00 0.00 43 1015.0
20210731183537 82 178 5.0 10.0 0.00 0.00 0.00 44 1015.1
20210731183131 82 196 6.0 10.0 0.00 0.00 0.00 43 1015.0
20210731182535 82 165 4.0 10.0 0.00 0.00 0.00 46 1015.0
20210731182054 82 169 6.0 10.0 0.00 0.00 0.00 46 1015.0
20210731181607 82 165 6.0 10.0 0.00 0.00 0.00 46 1014.9
20210731181037 82 149 7.0 10.0 0.00 0.00 0.00 45 1014.9